EDT,Max TemperatureF,Mean TemperatureF,Min TemperatureF,Max Dew PointF,MeanDew PointF,Min DewpointF,Max Humidity, Mean Humidity, Min Humidity, Max Sea Level PressureIn, Mean Sea Level PressureIn, Min Sea Level PressureIn, Max VisibilityMiles, Mean VisibilityMiles, Min VisibilityMiles, Max Wind SpeedMPH, Mean Wind SpeedMPH, Max Gust SpeedMPH,PrecipitationIn, CloudCover, Events, WindDirDegrees
2013-3-1,46,40,33,29,26,22,75,55,44,29.91,29.88,29.84,10,10,10,9,6,,0.00,5,,299
2013-3-2,46,37,28,28,23,16,89,59,42,29.93,29.88,29.81,10,10,10,13,5,17,0.00,4,,312
2013-3-3,45,38,30,20,17,15,56,47,37,29.99,29.92,29.86,10,10,10,15,9,21,0.00,4,,308
2013-3-4,51,38,24,23,15,10,65,43,19,30.12,30.05,29.99,10,10,10,14,6,17,0.00,0,,288
2013-3-5,45,40,34,45,38,24,100,86,44,30.06,29.84,29.57,10,4,1,8,2,16,0.32,7,Rain,115
2013-3-6,48,42,36,41,30,24,97,69,46,30.06,29.75,29.54,10,10,8,25,11,38,0.07,6,Rain,297
2013-3-7,51,42,33,28,26,23,75,56,41,30.25,30.16,30.06,10,10,10,15,9,23,0.00,2,,299
2013-3-8,55,44,33,25,23,21,67,46,28,30.30,30.23,30.17,10,10,10,18,9,26,0.00,0,,307
2013-3-9,62,47,32,31,27,24,75,50,28,30.35,30.29,30.23,10,10,10,10,4,,0.00,0,,345
2013-3-10,66,48,30,33,29,23,89,49,25,30.31,30.25,30.19,10,10,10,9,2,,0.00,0,,145
2013-3-11,66,50,35,52,40,23,77,61,33,30.21,30.08,29.90,10,10,10,13,4,23,0.00,4,Rain,143
2013-3-12,68,57,46,58,52,31,100,81,36,29.96,29.81,29.74,10,8,2,15,8,24,0.99,6,Rain,214
2013-3-13,55,42,32,30,26,17,92,53,32,30.15,30.03,29.96,10,10,10,20,7,29,0.00,1,,293
2013-3-14,54,40,28,18,16,14,56,38,24,30.25,30.17,30.12,10,10,10,14,8,26,0.00,0,,295
2013-3-15,63,44,27,34,27,16,81,49,28,30.18,30.04,29.88,10,10,10,17,6,24,0.00,0,,223
2013-3-16,78,60,42,53,43,34,78,53,31,29.87,29.77,29.64,10,10,10,16,6,30,0.00,1,Rain,225
2013-3-17,60,48,39,51,43,36,97,81,57,30.17,30.02,29.83,10,8,2,16,6,22,0.00,6,,37
2013-3-18,39,38,37,39,37,36,100,95,93,30.18,30.07,29.86,10,4,1,12,7,16,0.27,8,Rain,44
2013-3-19,66,50,37,42,31,9,100,66,18,30.03,29.88,29.82,10,7,0,17,5,26,0.00,4,Fog,272
2013-3-20,55,47,39,26,13,9,49,27,19,30.10,29.96,29.80,10,10,10,14,7,20,0.00,2,,266
2013-3-21,46,38,30,26,15,9,55,39,27,29.99,29.84,29.74,10,10,10,16,10,29,0.00,3,,310
2013-3-22,51,36,23,22,13,9,68,40,22,30.08,30.01,29.96,10,10,10,13,7,21,0.00,0,,255
2013-3-23,55,44,34,31,25,18,76,49,31,30.05,29.98,29.90,10,10,10,6,1,,0.00,5,,303
2013-3-24,41,37,33,37,35,29,100,90,73,29.91,29.70,29.59,10,5,1,15,6,22,0.58,7,Rain,24
2013-3-25,48,40,33,36,29,21,100,71,42,29.82,29.62,29.56,10,8,3,25,7,36,0.02,6,Rain-Snow,274
2013-3-26,48,39,30,27,25,23,76,54,41,30.13,29.95,29.83,10,10,10,13,8,21,0.00,5,,278
2013-3-27,51,40,30,25,22,18,79,51,29,30.24,30.18,30.12,10,10,10,18,8,26,0.00,0,,281
2013-3-28,57,42,30,25,22,21,69,47,27,30.29,30.22,30.16,10,10,10,16,7,23,0.00,0,,293
2013-3-29,60,44,28,29,24,21,82,49,24,30.33,30.25,30.17,10,10,10,10,3,16,0.00,2,,247
2013-3-30,66,52,39,40,33,26,82,50,27,30.24,30.15,30.07,10,10,10,9,2,,0.00,3,,186
2013-3-31,66,57,48,55,50,42,100,83,60,30.07,29.90,29.80,10,7,2,14,4,24,0.51,7,Rain,205